Regional Weather Roundup
Issued by NWS

Home | Current Version | Previous Version | Graphics & Text | Print | Product List | Glossary On
Versions: 1 2 3 4 5 6 7 8 9 10 11 12 13 14 15 16 17 18 19 20 21 22 23 24 25 26 27 28 29 30 31 32 33 34 35 36 37 38 39 40 41 42 43 44 45 46 47 48 49 50
270
ASUS43 KIND 242109
RWRIN

WEATHER ROUNDUP FOR INDIANA
NATIONAL WEATHER SERVICE INDIANAPOLIS IN
400 PM EST FRI FEB 24 2017

NOTE: "FAIR" INDICATES FEW OR NO CLOUDS BELOW 12,000 FEET WITH NO
SIGNIFICANT WEATHER AND/OR OBSTRUCTIONS TO VISIBILITY.

* - STATION DOES NOT REPORT WEATHER SUCH AS PRECIPITATION OR FOG.

+ - STATION NOT QUALITY CONTROLLED BY THE NATIONAL WEATHER SERVICE.
    USE DATA WITH CAUTION...ESPECIALLY DEWPOINT AND RELATIVE
    HUMIDITY OBSERVATIONS.

INZ001>003-010>013-019-020-242200-
NORTHWEST INDIANA

CITY           SKY/WX    TMP DP  RH WIND       PRES   REMARKS
GARY /AIRPORT/ CLOUDY    41  41 100 NW12      29.47R
KNOX *+        CLOUDY    61  41  48 SW14G22   29.43S
LA PORTE +     CLOUDY    62  57  84 SW12      29.42F
MICHIGAN CITY+ CLOUDY    46  46 100 W5        29.43F
MONTICELLO +   CLOUDY    65  54  69 S16G23    29.44F
RENSSELAER +   CLOUDY    63  55  77 SW18      29.45R
VALPARAISO     CLOUDY    55  49  80 W16       29.44R

$$

LMZ046-743>745-242200-
SOUTHERN LAKE MICHIGAN

STATION/POSITION TIME  TEMP    WIND        PRES    WAVE
                       AIR SEA DIR/SP/G            HT
                 (UTC) (F)     (DEG/KT/KT) (MB)    (FT)
BURNS HARBOR     2040   36     270/  9/ 12  998.3R
MICHIGAN CITY    2040   36     220/ 14/ 14   N/A

$$

INZ004-005-014>016-021>024-242200-
NORTH CENTRAL INDIANA

CITY           SKY/WX    TMP DP  RH WIND       PRES   REMARKS
ELKHART        LGT RAIN  63  55  77 S7        29.43S
GOSHEN         CLOUDY    64  54  69 S14       29.45R
LOGANSPORT +   CLOUDY    64  54  68 SW20G31   29.48S
PERU/GRISSOM   CLOUDY    66  56  70 SW17G25   29.47R
ROCHESTER +    CLOUDY    66  55  68 S9G17     29.46S
SOUTH BEND     TSTM      60  57  89 SW9       29.44S FOG
WARSAW +       CLOUDY    64  55  72 SW8       29.47R

$$

INZ006>009-017-018-025>027-242200-
NORTHEAST INDIANA

CITY           SKY/WX    TMP DP  RH WIND       PRES   REMARKS
ANGOLA *+      CLOUDY    64  55  72 SW9       29.46S
AUBURN +       CLOUDY    68  52  56 SW12G18   29.48R
FORT WAYNE     CLOUDY    65  53  65 SW12      29.48F
HUNTINGTON +   CLOUDY    65  54  67 SW7       29.48S
KENDALLVILLE + CLOUDY    64  55  73 SW12G21   29.47R

$$

INZ028-029-035-036-043>045-051>053-242200-
WEST CENTRAL INDIANA

CITY           SKY/WX    TMP DP  RH WIND       PRES   REMARKS
LAFAYETTE      PTSUNNY   67  55  65 SW14G29   29.46S
TERRE HAUTE    CLOUDY    66  53  63 SW12G25   29.51S

$$

INZ030>032-037>040-046>048-054>057-064-065-242200-
CENTRAL INDIANA

CITY           SKY/WX    TMP DP  RH WIND       PRES   REMARKS
ANDERSON       PTSUNNY   64  54  68 S12G17    29.49
CP ATTERBURY + CLOUDY    72  50  46 S18G25    29.52S THUNDER
COLUMBUS       PTSUNNY   73  50  43 SW16G28   29.54S
FRANKFORT +    CLOUDY    68  56  67 SW20      29.51R
GREENWOOD *+   PTSUNNY   68  54  60 S13G21    29.51S
INDIANAPOLIS   PTSUNNY   69  55  60 SW13      29.50R THUNDER
-EAGLE CREEK   PTSUNNY   68  53  58 SW8G17    29.50R
KOKOMO +       CLOUDY    67  55  65 SW20      29.50R
MARION +       CLOUDY    63  56  78 W12       29.50S
MT COMFORT *+  CLOUDY    66  52  59 S14G20    29.51R
SHELBYVILLE    TSTM      70  52  52 S23G32    29.50F
ZIONSVILLE +   CLOUDY    65  55  69 SW15G25   29.52R

$$

INZ033-034-041-042-049-050-058-059-242200-
EAST CENTRAL INDIANA

CITY           SKY/WX    TMP DP  RH WIND       PRES   REMARKS
MUNCIE         CLOUDY    68  53  58 S15G22    29.47F

$$

INZ060-061-067>069-081>083-085>088-242200-
SOUTHWEST INDIANA

CITY           SKY/WX    TMP DP  RH WIND       PRES   REMARKS
EVANSVILLE     CLOUDY    73  52  47 SW23G30   29.55F
HUNTINGBURG *+ CLOUDY    73  52  46 SW15      29.54R
WASHINGTON +   CLOUDY    68  51  54 SW10      29.54R

$$

INZ062-063-066-070>080-084-089>092-242200-
SOUTH CENTRAL AND SOUTHEAST INDIANA

CITY           SKY/WX    TMP DP  RH WIND       PRES   REMARKS
BEDFORD +      CLOUDY   N/A N/A N/A SW13      29.53F
BLOOMINGTON    CLOUDY    68  53  58 W7        29.54R
MADISON *+     CLOUDY    75  48  38 SW14      29.57F
NORTH VERNON + CLOUDY    73  50  43 S18       29.54S
SEYMOUR +      CLOUDY    75  52  43 SW13G22   29.54R

$$





USA.gov is the U.S. government's official web portal to all federal, state and local government web resources and services.